Zhou Enlai (43156 NORAD) Tracking and Keplerian Element Data

This shows tracking and keplerian element data for the satellite.

Feedback or suggestion? Click here.




ElementValue
Catalog43156
NameZhou Enlai
Epoch Orbit4864
Epoch Day341.55544236
Epoch Year2018
RAAN52.8922
Inclination97.5149
Eccentricity0.0013428
Argument of Perigee266.6923
Mean Anonmoly206.6368
Mean Motion15.10316206
Decay Rate1.157E-05
L11 43156U 18008B 18341.55544236 .00001157 00000-0 74382-4 0 9999
L22 43156 97.5149 52.8922 0013428 266.6923 206.6368 15.10316206 48644

Live tracking and technical data element details for Zhou Enlai (NORAD 43156). Zhou Enlai can be tracked NOW for your location showing map with azimuth and elevation plus other details from your city location.

Track the satellite on the map from your city or location and see movement details for azimuth, elevation, latitude, longitude, range, height, and movement on the map or in text.







IsCatalogInMostPopularTable: catalog: 43156, numindb: 132
Update: records affected: 1



GetName: 43156 Zhou Enlai

Hit Count: updated at: Thu, 13 Dec 2018 04:08:32 GMT